Regional Weather Roundup
Issued by NWS

Home | Current Version | Previous Version | Graphics & Text | Print | Product List | Glossary On
Versions: 1 2 3 4 5 6 7 8 9 10 11 12 13 14 15 16 17 18 19 20 21 22 23 24 25 26 27 28 29 30 31 32 33 34 35 36 37 38 39 40 41 42 43 44 45 46 47 48 49 50
000
ASUS45 KTFX 200504
RWRMT
MONTANA HOURLY WEATHER ROUNDUP
NATIONAL WEATHER SERVICE GREAT FALLS MT
1004 PM MST FRI DEC 19 2014

NOTE: "FAIR" INDICATES FEW OR NO CLOUDS BELOW 12000 FEET WITH NO
SIGNIFICANT WEATHER AND/OR OBSTRUCTIONS TO VISIBILITY.

* THESE STATIONS ARE NOT UNDER NWS QUALITY CONTROL. THEY DO NOT
   REPORT WEATHER SUCH AS PRECIPITATION OR FOG.

MTZ001>007-043-200600-
WEST OF THE DIVIDE
CITY           SKY/WX    TMP DP  RH WIND       PRES   REMARKS
KALISPELL      CLOUDY    36  34  92 S8        29.92R WCI  30
MISSOULA       FOG       30  30 100 SE3       30.00R VSB M1/4
BUTTE          CLOUDY    32  27  82 NW5       29.95R WCI  27
MULLAN PASS    FOG       28  25  89 VRB6      29.92R VSB 2 1/2 WCI  21
* ESSEX        N/A       32  32 100 NE1        N/A
* LINCOLN      N/A       32  29  89 W2G8       N/A
* LOOKOUT PASS N/A       31  29  92 N4         N/A
* POLSON       N/A       32  32 100 N/A        N/A
* RONAN APT    PTCLDY    34  32  92 N/A        N/A
* SEELEY LAKE  N/A       30  29  96 N/A        N/A
* THOMP F APT  PTCLDY    28  27  96 S6         N/A   WCI  21
* YAAK HILL    N/A       37  34  89 E1         N/A
$$

MTZ008-052>055-200600-
SOUTHWEST MONTANA
CITY           SKY/WX    TMP DP  RH WIND       PRES   REMARKS
BOZEMAN        PTCLDY    28  27  96 S3        29.94R
DILLON         MOCLDY    27  21  78 SW10      29.95S WCI  18
* W YELLOWSTON MOCLDY    28  25  89 SW6G14     N/A   WCI  21
* THREE FORKS  PTCLDY    37  37 100 N/A        N/A
* BOULDER HILL N/A       30  24  78 SW2        N/A
* MONIDA PASS  N/A       26  26 100 SE11       N/A   WCI  16
* RAYNOLDS PAS N/A       27  10  49 SE12       N/A   WCI  16
* WHITEHALL    N/A       36  28  73 SW8G21     N/A   WCI  30
* WISE RIVER   N/A       29  27  92 NW2G13     N/A
$$

MTZ009>010-012-014-046-048-049-054-200600-
EAST SLOPES AND CENTRAL MONTANA
CITY           SKY/WX    TMP DP  RH WIND       PRES   REMARKS
CUT BANK       PTCLDY    36  27  70 W18       29.78R WCI  26
GREAT FALLS    PTCLDY    37  30  76 SW16      29.82S WCI  28
HELENA         CLOUDY    37  30  76 W14       29.91F WCI  28
* DEARBORN     N/A       43  29  58 S11G18     N/A
* EAST GLACIER N/A       31  26  82 W18G26     N/A   WCI  19
* MONARCH      N/A       35  20  54 SW11G17    N/A   WCI  27
* PENDROY      N/A       32  22  67 W15        N/A   WCI  22
* SWEET GRASS  N/A       36  31  82 W19G24     N/A   WCI  25
$$

MTZ011-013-016-021-035-040-045-047-050-051-200600-
NORTH CENTRAL MONTANA
CITY           SKY/WX    TMP DP  RH WIND       PRES   REMARKS
HAVRE          LGT RAIN  37  34  89 S12       29.79S WCI  29
LEWISTOWN      CLOUDY    39  28  65 SW14      29.83S WCI  31
* N BAR RANCH  CLOUDY    36  25  64 N3        29.83F
* CHESTER      N/A       30  27  89 N/A        N/A
* DENTON       N/A       41  29  62 W9         N/A
* JUDITH GAP   N/A       36  30  79 W19        N/A   WCI  25
* LOMA         N/A       39  31  73 S4         N/A
$$

MTZ017>020-022>027-061-062-200600-
NORTHEAST MONTANA
CITY           SKY/WX    TMP DP  RH WIND       PRES   REMARKS
GLASGOW        CLOUDY    30  25  82 E13       29.82F WCI  20
GLENDIVE       MOCLDY    23  18  81 SW5       29.89S WCI  16
JORDAN         MOCLDY    28  25  89 CALM      29.83S
SIDNEY         CLEAR     18  16  92 CALM      29.91S
WOLF POINT     MOCLDY    23  19  85 NE8       29.87F WCI  14
* BEAVER HILL  N/A       32  23  69 S8         N/A   WCI  25
* CIRCLE       N/A       31  26  82 N/A        N/A
* LINDSAY DVD  N/A       34  25  70 S4         N/A
* NAVAJO       N/A       21  20  96 S6         N/A   WCI  13
* SACO         N/A       27  25  92 E4         N/A
$$

MTZ028>042-056>058-200600-
SOUTHCENTRAL AND SOUTHEAST MONTANA
CITY           SKY/WX    TMP DP  RH WIND       PRES   REMARKS
BAKER          PTCLDY    21  19  92 CALM      29.89S
BILLINGS       CLOUDY    36  21  54 SW10      29.90R WCI  29
LIVINGSTON     PTCLDY    39  25  57 W23G35    29.90R WCI  28
MILES CITY     CLOUDY    30  23  75 SE8       29.87S WCI  22
* LAUREL APT   CLOUDY    36  16  44 N/A        N/A
* ROUNDUP APT  CLOUDY    37  21  52 S10G15     N/A   WCI  30
* ALZADA       N/A       32  25  75 E4         N/A
* LAME DEER    N/A       34  17  50 SW6        N/A   WCI  29
* REED POINT   N/A       27  22  81 N/A        N/A
* ROSCOE HILL  N/A       39  11  31 SW4G16     N/A
$$

REGIONAL REPORTS...DAKOTAS
CITY           SKY/WX    TMP DP  RH WIND       PRES   REMARKS
WILLISTON      FOG       18  14  84 NE5       29.91S VSB 1 1/2 WCI  11
DICKINSON      CLEAR     25  19  78 S3        29.87S
BEACH          CLEAR     25  23  92 SE5       29.89S WCI  19
CROSBY         FOG       19  19 100 SE3       29.93R VSB M1/4
WATFORD CITY   CLEAR     16  16 100 CALM      29.89S
BISMARCK       PTCLDY    18  16  92 E5        29.95S WCI  11
GRAND FORKS    FOG       28  28 100 S6        30.00R WCI  21
FARGO          CLOUDY    32  28  85 S10       30.02S WCI  24
BUFFALO SD     CLEAR     30  19  64 W6        29.83S WCI  24
RAPID CITY     PTCLDY    25  19  78 W3        29.91S
$$

REGIONAL REPORTS...WYOMING/IDAHO/WASHINGTON
CITY           SKY/WX    TMP DP  RH WIND       PRES   REMARKS
GILLETTE       MOCLDY    34  21  59 SW7       29.88S WCI  28
SHERIDAN       MOCLDY    25  19  78 S5        29.88R WCI  19
CODY           MOCLDY    39  21  48 NW6       29.92R WCI  35
YELLOWSTONE LA MOCLDY    27  21  78 VRB5      30.03S WCI  21
SALMON         PTCLDY    28  27  96 CALM      30.02R
MULLAN PASS    FOG       28  25  89 VRB6      29.92S VSB 2 1/2 WCI  21
SAND POINT     CLOUDY    37  37 100 S7        30.00R WCI  32
SPOKANE        CLOUDY    37  36  96 S8        30.00R WCI  31

$$




USA.gov is the U.S. government's official web portal to all federal, state and local government web resources and services.